Location: Bezons
(48.9243°N, 2.2128°E)
Time: 22:39:47
(UTC+00:00)

Daily predictions for brighter satellites

Satellite Brightness Start Highest point End
(mag) Time Altitude Azimuth Time Altitude Azimuth Time Altitude Azimuth
Cosmos 1833 Rocket 2.7 20:07:10 10° SSW 20:12:43 63° ESE 20:18:18 10° NNE
ATLAS 3B R/B 3.2 20:10:25 10° NW 20:17:20 57° NE 20:24:32 10° ESE
CENTAUR R/B 4.4 20:10:05 10° NW 20:17:34 39° WSW 20:25:35 10° S
OPS 8737 4.5 20:14:41 10° NW 20:17:44 76° SW 20:21:36 10° SE
USA 245 4.5 20:13:33 10° SE 20:18:42 44° ENE 20:23:00 10° N
USA 267 4.4 20:14:59 10° E 20:19:24 19° ESE 20:23:47 10° SSE
NOSS 7 (E) 4.4 20:17:49 10° SSW 20:21:40 63° SE 20:24:47 10° NE
Cosmos 2360 Rocket 4.4 20:20:34 10° N 20:23:46 15° NNE 20:26:59 10° ENE
ERS-1 Rocket 4.1 20:21:22 10° ESE 20:25:42 30° ENE 20:30:03 10° N
BREEZE-M DEB (TANK) 3.9 20:22:54 10° SSW 20:26:22 35° SE 20:36:18 10° ENE
Gbstr 26 Del rocket 3.3 20:23:47 10° WNW 20:27:28 55° N 20:31:21 10° E
Spot 2 Rocket 4.1 20:24:09 10° SE 20:28:58 44° ENE 20:33:49 10° N
Cosmos 1437 3.3 20:28:15 10° NNW 20:30:55 46° W 20:33:35 10° S
Cosmos 1606 2.7 20:28:10 10° N 20:31:57 66° E 20:35:41 10° SSE
ARIANE 5 R/B 3.4 20:31:38 10° SE 20:35:49 39° ENE 20:39:58 10° N
Cosmos 2221 2.6 20:31:48 10° NNW 20:36:06 81° W 20:40:24 10° S
BREEZE-M DEB (TANK) 3.4 20:33:34 10° W 20:36:35 71° SSW 20:45:20 10° ESE
Cosmos 2369 3.8 20:31:10 10° NNW 20:36:52 85° WSW 20:42:31 10° SSE
OBJECT-B 3.8 20:36:53 10° WSW 20:38:23 13° W 20:39:53 10° WNW
COSMOS 2406 3.3 20:34:19 10° SSW 20:40:00 89° ESE 20:45:45 10° NNE
Cosmos 44 Rocket 3.4 20:38:12 10° SSW 20:43:21 66° ESE 20:48:34 10° NE
CARTOSAT-1 3.9 20:39:55 11° SSE 20:44:00 52° ENE 20:48:13 10° N
Cosmos 1980 Rocket 2.2 20:40:36 10° NNW 20:46:15 86° ENE 20:51:34 12° SSE
CZ-2C R/B 3.8 20:43:43 10° NNE 20:48:16 59° E 20:52:41 10° S
Cosmos 2098 Rocket 2.3 20:46:15 10° S 20:49:09 57° E 20:52:27 10° NNE
IGS 5A 4.4 20:46:54 10° S 20:50:53 45° W 20:54:54 10° NNW
Cosmos 1782 4.2 20:48:43 10° NNE 20:52:05 25° ENE 20:54:42 14° ESE
BREEZE-M DEB (TANK) 3.2 20:41:30 10° W 20:52:10 87° N 20:55:25 10° E
Cosmos 2322 Rocket 3.5 20:49:06 10° NNW 20:54:01 29° NE 20:58:53 10° ESE
USA 234 3.9 20:49:07 10° E 20:55:27 53° NNE 21:01:47 10° WNW
Cosmos 1825 4.1 20:52:37 10° SW 20:55:58 31° WNW 20:59:22 10° N
SPOT 5 3.0 20:55:38 14° SE 20:59:06 50° ENE 21:03:19 10° N
SPOT 1/Viking Rocket 3.8 20:55:50 10° S 21:01:00 72° WSW 21:06:14 10° NNW
Cosmos 1092 Rocket 4.3 20:55:40 10° SSE 21:01:39 51° E 21:07:45 10° NNE
Cosmos 371 Rocket 3.3 21:01:41 10° NNW 21:06:32 87° ENE 21:10:21 16° SSE
Cosmos 2151 3.0 21:05:39 11° S 21:09:38 62° E 21:13:51 10° NNE
ISS -3.7 21:07:03 10° WNW 21:10:26 79° NNE 21:12:58 17° ESE
Terra 2.1 21:12:28 18° SE 21:15:53 55° ENE 21:20:33 10° N
USA 276 2.2 21:14:41 10° W 21:17:51 74° N 21:20:24 15° E
Cosmos 2026 Rocket 4.2 21:14:18 13° SSE 21:19:56 57° E 21:26:05 10° NNE
SL-16 R/B 2.7 21:14:25 10° NNW 21:19:58 51° NE 21:24:03 18° SE
Cosmos 2219 Rocket 4.4 21:17:02 10° N 21:20:27 16° NE 21:23:52 10° ENE
Cosmos 1633 3.5 21:18:34 10° SSW 21:22:04 48° WNW 21:25:36 10° N
GP-B 3.1 21:19:00 10° N 21:23:28 74° E 21:26:47 17° S
Nadezhda 4 Rocket 4.3 21:20:26 10° SSW 21:26:33 69° WNW 21:32:47 10° N
Cosmos 1271 Rocket 2.8 21:23:11 10° N 21:27:10 73° ENE 21:29:29 24° SSE
Cosmos 1151 Rocket 3.5 21:23:21 10° N 21:27:34 47° ENE 21:29:57 23° SE
Cosmos 1076 Rocket 4.4 21:25:29 10° SSW 21:29:41 50° WNW 21:33:58 10° N
Meteor 2-19 Rocket 4.5 21:27:42 10° S 21:33:47 86° W 21:39:53 10° N
RESURS DK-1 2.9 21:32:16 10° SW 21:36:23 61° WNW 21:40:31 10° NNE
ERBS 4.1 21:34:51 10° W 21:37:10 18° SW 21:38:12 16° SSW
H-2A R/B 4.1 21:35:08 10° NNE 21:39:05 39° E 21:40:45 27° SSE
Cosmos 2056 Rocket 4.4 21:35:28 10° NNW 21:40:33 40° ENE 21:43:49 20° ESE
Cosmos 332 Rocket 3.9 21:37:17 10° NNW 21:42:10 76° WSW 21:45:08 24° SSE
Okean 3 Rocket 3.9 21:41:09 26° SSE 21:43:21 49° E 21:47:43 10° NNE
Resurs 01 Rocket 4.2 21:42:48 10° SW 21:45:27 15° W 21:48:07 10° NW
Meteor 1-26 Rocket 4.4 21:40:25 10° NNW 21:46:27 78° W 21:50:37 20° S
Cosmos 1933 4.0 21:44:22 10° NNW 21:48:19 50° W 21:50:55 19° SSW
Cosmos 1428 Rocket 4.5 21:46:12 13° S 21:51:45 87° WNW 21:57:55 10° N
ATLAS 2AS CENTAUR R/B 3.6 21:45:44 10° WSW 21:53:32 59° NW 22:01:06 10° NE
Cosmos 2082 Rocket 3.2 21:49:14 10° SW 21:54:40 49° NW 22:00:12 10° NNE
Cosmos 1553 Rocket 3.9 21:50:10 10° N 21:56:17 74° E 21:59:54 26° SSE
ATLAS 5 CENTAUR R/B 4.2 21:54:41 10° NNW 21:58:39 22° NNE 22:03:08 10° ENE
Cosmos 1371 Rocket 4.3 21:56:23 10° NNW 22:01:44 62° ENE 22:04:31 28° SE
CZ-4B DEB 4.5 22:02:01 40° SSW 22:02:56 61° W 22:06:04 10° NNW
USA 267 3.2 21:56:48 10° ENE 22:03:18 63° SE 22:09:47 10° SW
CZ-3B R/B 3.6 21:49:44 10° WNW 22:03:39 61° N 22:07:16 12° E
ERS-1 Rocket 3.9 22:00:49 17° SSW 22:04:21 42° W 22:09:09 10° NNW
Cosmos 2112 Rocket 4.2 22:02:04 28° SSE 22:04:37 51° ESE 22:09:44 10° NNE
SL-27 R/B 4.1 22:05:12 21° E 22:05:12 21° E 22:07:33 10° NE
Cosmos 1655 Rocket 4.5 22:02:10 26° SE 22:05:21 46° E 22:11:24 10° NNE
Cosmos 2333 Rocket 3.6 22:00:23 10° NNW 22:05:23 31° NE 22:09:26 14° ESE
Cosmos 1680 Rocket 3.6 22:03:27 25° S 22:06:25 61° ESE 22:11:37 10° NNE
ATLAS 3B R/B 3.5 22:01:20 10° NW 22:08:00 44° WSW 22:12:25 22° S
Cosmos 2360 Rocket 2.6 22:03:33 10° NNW 22:09:06 55° ENE 22:12:12 26° SE
ARIANE 5 R/B 4.3 22:09:07 13° SSW 22:12:21 26° W 22:16:09 10° NW
Cosmos 2228 Rocket 4.4 22:09:32 10° NNE 22:13:20 27° ENE 22:14:49 22° ESE
Gbstr 26 Del rocket 2.7 22:10:33 10° WNW 22:14:20 70° SSW 22:15:40 40° SE
Cosmos 1408 Rocket 3.7 22:13:14 37° SSE 22:14:37 54° E 22:18:53 10° NNE
Cosmos 1812 2.7 22:14:56 10° NNW 22:18:49 77° W 22:19:58 43° S
Cosmos 292 Rocket 4.4 22:15:03 10° NNW 22:19:39 46° ENE 22:21:42 29° ESE
Cosmos 1862 3.2 22:19:39 44° S 22:20:49 74° E 22:24:49 10° NNE
Cosmos 220 Rocket 3.9 22:17:56 10° NNW 22:22:16 86° WSW 22:23:42 42° SSE
S3M 4.0 22:17:42 10° N 22:24:07 81° E 22:27:28 31° SSE
Meteor 2-14 Rocket 4.4 22:22:18 24° S 22:26:13 87° W 22:32:25 10° N
Cosmos 1782 4.3 22:24:50 10° NNW 22:28:25 31° W 22:30:18 21° SW
Cosmos 1980 Rocket 4.3 22:26:02 10° WNW 22:29:30 17° W 22:32:58 10° SW
BREEZE-M DEB (TANK) 4.2 22:31:24 10° W 22:31:51 15° W 22:31:51 15° W
Spot 4 4.0 22:32:44 38° SE 22:34:29 66° ENE 22:39:16 10° N
Cosmos 1515 Rocket 3.5 22:30:08 10° N 22:34:36 84° W 22:36:00 44° S
Cosmos 2237 Rocket 4.5 22:32:14 10° N 22:36:06 18° NE 22:39:56 10° E
USA 234 3.2 22:34:19 26° SE 22:38:17 80° SW 22:44:53 10° WNW
Cosmos 2322 Rocket 2.4 22:32:54 10° NW 22:38:28 60° WSW 22:40:46 34° S
Cosmos 1624 Rocket 4.0 22:38:27 10° NNW 22:43:39 70° WSW 22:45:32 39° S
ISS -1.9 22:44:08 10° W 22:45:55 22° WSW 22:45:55 22° WSW
ALOS 2 3.0 22:47:37 39° ESE 22:48:50 51° ENE 22:53:07 10° N
Terra 3.8 22:51:21 14° SW 22:53:58 21° W 22:57:32 10° NW
USA 276 3.7 22:50:57 10° W 22:52:37 26° W 22:52:37 26° W
Cosmos 1420 Rocket 4.0 22:52:44 10° NNW 22:58:05 79° WSW 22:59:52 43° S
Cosmos 2084 3.3 22:58:26 57° SE 22:58:27 57° SE 23:02:34 10° NE
COBE Rocket 3.9 22:59:09 43° SSW 23:00:30 64° W 23:05:09 10° NNW
Cosmos 2333 4.2 22:56:45 10° NNW 23:02:23 79° ENE 23:04:36 38° SE
COSMOS 2428 3.3 22:57:38 10° NNW 23:03:13 50° NE 23:06:09 26° ESE
SL-16 R/B 3.4 22:58:56 10° NW 23:03:50 31° WSW 23:05:54 24° SW
Cosmos 2219 Rocket 2.5 23:00:04 10° NNW 23:05:38 61° ENE 23:08:07 32° SE
Meteor 1-27 Rocket 3.7 23:01:21 10° NNW 23:06:58 78° W 23:09:04 40° S
Cosmos 1452 Rocket 3.5 23:08:20 10° NNW 23:13:38 76° ENE 23:15:22 43° SE
NOSS 3-1 (C) 4.0 23:12:12 10° NW 23:19:36 88° SW 23:24:41 28° SE
Cosmos 1805 Rocket 3.5 23:19:21 59° S 23:20:10 81° E 23:24:38 10° NNE
NOSS 2-1 (E) 2.9 23:20:53 77° N 23:20:53 77° N 23:24:14 10° NE
Cosmos 2285 Rocket 3.9 23:17:35 10° NNW 23:23:57 85° ENE 23:26:32 38° SSE
Cosmos 1174 4.3 23:24:52 10° NW 23:26:54 36° WNW 23:26:54 36° WNW
Cosmos 2315 Rocket 4.2 23:22:00 10° NNW 23:28:13 65° W 23:30:48 37° SSW
Cosmos 1515 3.6 23:24:38 10° N 23:28:25 74° E 23:28:34 72° ESE
Geosat 4.3 23:27:37 33° ESE 23:29:46 60° NE 23:34:43 10° NNW
USA 229 DEB 4.0 23:24:15 10° NW 23:31:33 76° NE 23:36:51 22° SE
USA 229 4.0 23:24:21 10° NW 23:31:39 76° NE 23:36:59 22° SE
Cosmos 1500 Rocket 4.3 23:30:46 34° WSW 23:32:06 45° WNW 23:36:22 10° N
USA 40 PKM 4.2 23:33:28 10° NW 23:37:02 85° NE 23:37:43 58° ESE
Meteor 1-20 Rocket 4.1 23:37:01 45° S 23:38:49 86° E 23:44:30 10° NNE
SL-27 R/B 4.0 23:38:40 27° W 23:39:38 32° WNW 23:42:55 10° N
COSMOS 2455 2.8 23:38:43 43° S 23:40:37 66° ESE 23:46:36 10° NE
PSLV R/B 4.4 23:38:22 10° NNE 23:42:54 42° E 23:43:41 38° ESE
SL-08 ROCKET BODY 4.5 23:41:23 41° SSE 23:43:28 67° E 23:49:32 10° NNE
COSMOS 2487 2.6 23:44:23 68° NNE 23:44:23 68° NNE 23:47:24 10° NNE
ATLAS 5 CENTAUR R/B 2.6 23:38:52 10° NW 23:44:12 62° NE 23:48:42 19° ESE
Cosmos 1110 Rocket 4.1 23:39:19 10° NNW 23:44:40 74° ENE 23:46:28 42° SE
USA 267 3.8 23:39:55 10° NE 23:46:20 60° NNW 23:52:45 10° W
Meteor 1-18 Rocket 4.3 23:40:43 10° N 23:46:38 76° ENE 23:48:44 41° SSE
Cosmos 2333 Rocket 2.4 23:44:27 10° NW 23:50:00 57° WSW 23:51:25 44° SSW
Cosmos 2228 Rocket 4.1 23:47:36 10° NNW 23:51:34 34° W 23:52:18 32° WSW
Resurs 1-4 Rocket 4.4 23:50:18 10° ENE 23:51:49 11° E 23:53:21 10° ESE
Cosmos 2360 Rocket 3.3 23:48:05 10° NW 23:52:46 28° WSW 23:53:56 26° SW
Nimbus 7 Rocket 4.4 23:47:24 10° NNE 23:53:29 90° E 23:55:47 41° SSW
Okean 1 3.1 23:49:53 10° NNW 23:53:56 79° W 23:54:11 75° SW
Cosmos 1331 Rocket 4.0 23:48:44 10° NNW 23:54:02 80° ENE 23:55:40 45° SE
Cosmos 1666 3.8 23:54:41 33° E 23:54:45 33° E 23:58:15 10° NNE
